Weather in Samana

Dominican Republic     19°12′38″N   69°19′15″W
temp.,
°C
wind,
m/s
gust,
m/s
humid.,
%
clouds,
%
prec.,
mm/h
press.,
hPa
HPBL,
m
10 may, mon
mon1023:00+25e6983100 0.1 1020782
02:00+25ese4779100 0.1 1018636
05:00+25e5783100 1.1 1017652
08:00+25e5785100 1.6 1019670
11:00+27e5776100 0.3 1019860
14:00+28e6771100 0.7 1017881
17:00+26e6978100 2.7 1017813
20:00+25e5881100 4.1 1018578
11 may, tue
tue1123:00+25e5988100 0.6 1018731
02:00+25e5885100 0.9 1016741
05:00+25e4885100 0.3 1017639
08:00+25ese4886100 0.9 1018692
11:00+26ese477798 1.9 1018779
14:00+27e4676100 2.3 1017704
17:00+26e5780100 0.3 1017617
20:00+25e4787100 0.3 1018611
12 may, wed
wed1223:00+25e4886100 0.1 1018612
02:00+25e4887100 0.1 1017624
05:00+24e4890100 0.8 1017481
08:00+25ese4885100 1.1 1018792
11:00+26e588377 0.6 1019774
14:00+27e5671100 0.9 1018935
17:00+26e4776100 0.0 1016765
20:00+25e4786100 0.0 1017590
13 may, thu
thu1323:00+24e488919 0.3 1018558
02:00+24e47872 0.4 1017583
05:00+24e369027 0.1 1017411
08:00+25e578623 0.5 1018759
11:00+27e57738 0.1 1018993
14:00+28e78710 0.1 1016767
17:00+26e58821 0.4 1015467
20:00+25e47875 0.5 1016457
14 may, fri
fri1423:00+24ese368833 0.0 1017412
02:00+24ese359017 0.0 1016311
05:00+24e259163 0.1 1016310
08:00+26sse24810 0.3 1017480
11:00+28e45677 0.0 10171039
14:00+29e66674 0.0 1016836
17:00+27e57740 0.0 1014532
20:00+25ese48860 0.0 1015421